Rochester/St. Mary\'s Hospita, MN

3:38 AM CDT on March 26, 2017 (GMT -0500)
Rochester/St. Mary\'s Hospita

Weather History for K9MN - November, 2013

Change the Weather History Date:

Wednesday, November 27, 2013

  Actual Average (KRST) Record (KRST)
Temperature  
Mean Temperature 16 °F -  
Max Temperature 24 °F 32 °F 64 °F (1914)
Min Temperature 9 °F 16 °F -12 °F (1887)
Degree Days  
Heating Degree Days 48    
Moisture  
Dew Point 5 °F    
Average Humidity 62    
Maximum Humidity 79    
Minimum Humidity 44    
Precipitation  
Precipitation 0.00 in - - ()
Sea Level Pressure  
Sea Level Pressure 30.22 in    
Wind  
Wind Speed 6 mph (SW)    
Max Wind Speed 13 mph    
Max Gust Speed 17 mph    
Visibility 10 miles    
Events      
Averages and records for this station are not official NWS values.
T = Trace of Precipitation, MM = Missing Value Source: NWS Daily Summary

Daily Weather History Graph

Daily Weather History Graph

Search for Another Location

Airport or City:

Trip Planner

Search our weather history database for the weather conditions in past years. The results will help you decide how hot, cold, wet, or windy it might be!

Date:

Astronomy

Nov. 27, 2013 Rise Set
Actual Time 7:20 AM CST 4:34 PM CST
Civil Twilight 6:48 AM CST 5:06 PM CST
Nautical Twilight 6:12 AM CST 5:42 PM CST
Astronomical Twilight 5:37 AM CST 6:17 PM CST
Moon 1:11 AM CST (11/27) 1:22 PM CST (11/27)
Length of Visible Light 10h 18m
Length of Day
9h 14m
Waning Crescent, 31% of the Moon is Illuminated
Nov 27
Waning Crescent
Dec 2
New
Dec 9
First Quarter
Dec 17
Full
Dec 25
Last Quarter

Hourly Weather History & Observations

Time (CST) Temp. Windchill Dew Point Humidity Pressure Visibility Wind Dir Wind Speed Gust Speed Precip Events Conditions
12:13 AM 12.7 °F 3.6 °F 3.6 °F 67% 30.31 in 10.0 mi NW 5.8 mph - N/A   Clear
12:33 AM 12.4 °F 3.1 °F 3.6 °F 68% 30.31 in 10.0 mi NW 5.8 mph - N/A   Clear
12:54 AM 12.2 °F 2.9 °F 3.9 °F 69% 30.31 in 10.0 mi NW 5.8 mph - N/A   Clear
1:13 AM 11.8 °F 0.3 °F 3.6 °F 69% 30.31 in 10.0 mi WNW 8.1 mph - N/A   Clear
1:33 AM 11.7 °F 2.3 °F 3.6 °F 70% 30.31 in 10.0 mi NW 5.8 mph - N/A   Clear
1:54 AM 11.3 °F -0.4 °F 3.2 °F 70% 30.31 in 10.0 mi NW 8.1 mph - N/A   Clear
2:13 AM 10.9 °F 0.2 °F 3.4 °F 72% 30.32 in 10.0 mi WNW 6.9 mph - N/A   Clear
2:33 AM 10.8 °F 0.0 °F 3.4 °F 72% 30.32 in 10.0 mi WNW 6.9 mph - N/A   Clear
2:54 AM 10.8 °F -2.0 °F 3.9 °F 74% 30.32 in 10.0 mi WNW 9.2 mph - N/A   Clear
3:13 AM 10.4 °F -1.5 °F 3.4 °F 73% 30.31 in 10.0 mi WNW 8.1 mph - N/A   Clear
3:33 AM 10.4 °F -2.4 °F 3.7 °F 74% 30.31 in 10.0 mi WNW 9.2 mph - N/A   Clear
3:54 AM 10.4 °F -0.4 °F 3.7 °F 74% 30.31 in 10.0 mi NW 6.9 mph - N/A   Clear
4:13 AM 10.0 °F -0.9 °F 3.6 °F 75% 30.31 in 10.0 mi WNW 6.9 mph - N/A   Clear
4:33 AM 9.9 °F 0.2 °F 3.2 °F 74% 30.32 in 10.0 mi NW 5.8 mph - N/A   Clear
4:54 AM 9.9 °F -1.1 °F 3.6 °F 76% 30.31 in 10.0 mi WNW 6.9 mph - N/A   Clear
5:13 AM 10.0 °F 1.8 °F 3.9 °F 76% 30.32 in 10.0 mi West 4.6 mph - N/A   Clear
5:33 AM 10.0 °F 3.6 °F 3.9 °F 76% 30.32 in 10.0 mi WNW 3.5 mph - N/A   Clear
5:54 AM 9.9 °F 1.6 °F 4.1 °F 78% 30.33 in 10.0 mi WNW 4.6 mph - N/A   Clear
6:13 AM 9.3 °F 1.0 °F 3.7 °F 78% 30.32 in 10.0 mi WNW 4.6 mph - N/A   Clear
6:33 AM 9.1 °F -3.0 °F 3.6 °F 78% 30.32 in 10.0 mi WNW 8.1 mph - N/A   Clear
6:53 AM 9.3 °F -0.5 °F 3.7 °F 78% 30.33 in 10.0 mi WNW 5.8 mph - N/A   Clear
7:13 AM 9.5 °F 1.2 °F 4.1 °F 79% 30.32 in 10.0 mi WNW 4.6 mph - N/A   Clear
7:33 AM 9.5 °F -0.3 °F 3.9 °F 78% 30.32 in 10.0 mi WNW 5.8 mph - N/A   Clear
7:53 AM 9.9 °F 1.6 °F 4.1 °F 78% 30.32 in 10.0 mi West 4.6 mph - N/A   Clear
8:13 AM 10.2 °F 0.6 °F 4.6 °F 78% 30.33 in 10.0 mi WNW 5.8 mph - N/A   Clear
8:33 AM 10.6 °F 1.0 °F 4.3 °F 76% 30.33 in 10.0 mi WNW 5.8 mph - N/A   Clear
8:53 AM 11.3 °F 5.1 °F 4.5 °F 74% 30.33 in 10.0 mi WNW 3.5 mph - N/A   Clear
9:13 AM 12.7 °F 6.7 °F 5.2 °F 72% 30.33 in 10.0 mi NW 3.5 mph - N/A   Clear
9:33 AM 13.1 °F - 5.0 °F 70% 30.33 in 10.0 mi Calm Calm - N/A   Clear
9:53 AM 15.3 °F 9.6 °F 6.4 °F 68% 30.32 in 10.0 mi West 3.5 mph - N/A   Clear
10:13 AM 15.4 °F 9.8 °F 5.9 °F 66% 30.32 in 10.0 mi NW 3.5 mph - N/A   Clear
10:33 AM 16.7 °F - 5.2 °F 61% 30.31 in 10.0 mi Calm Calm - N/A   Clear
10:53 AM 18.7 °F - 6.3 °F 58% 30.30 in 10.0 mi Calm Calm - N/A   Clear
11:13 AM 19.0 °F - 5.9 °F 57% 30.29 in 10.0 mi Calm Calm - N/A   Clear
11:33 AM 19.0 °F 13.9 °F 3.9 °F 52% 30.27 in 10.0 mi SE 3.5 mph - N/A   Clear
11:53 AM 20.5 °F 15.6 °F 4.6 °F 50% 30.26 in 10.0 mi ESE 3.5 mph - N/A   Clear
12:13 PM 21.2 °F 14.9 °F 5.0 °F 50% 30.25 in 10.0 mi SSW 4.6 mph - N/A   Clear
12:33 PM 22.1 °F 17.4 °F 4.5 °F 47% 30.23 in 10.0 mi South 3.5 mph - N/A   Clear
12:53 PM 22.1 °F 14.7 °F 4.6 °F 47% 30.22 in 10.0 mi SSW 5.8 mph - N/A   Scattered Clouds
1:13 PM 22.5 °F 12.4 °F 3.9 °F 45% 30.21 in 10.0 mi SSW 9.2 mph - N/A   Mostly Cloudy
1:33 PM 24.1 °F 17.0 °F 4.8 °F 44% 30.21 in 10.0 mi South 5.8 mph - N/A   Mostly Cloudy
1:53 PM 22.6 °F 13.4 °F 4.5 °F 46% 30.19 in 10.0 mi SSE 8.1 mph - N/A   Mostly Cloudy
2:13 PM 22.3 °F 13.0 °F 3.7 °F 45% 30.17 in 10.0 mi South 8.1 mph - N/A   Overcast
2:34 PM 22.1 °F 14.7 °F 4.1 °F 46% 30.17 in 10.0 mi South 5.8 mph - N/A   Overcast
2:53 PM 23.2 °F 17.2 °F 5.2 °F 46% 30.17 in 10.0 mi WSW 4.6 mph - N/A   Overcast
3:13 PM 22.8 °F 13.6 °F 3.9 °F 44% 30.16 in 10.0 mi South 8.1 mph - N/A   Overcast
3:34 PM 23.0 °F 15.8 °F 4.6 °F 45% 30.14 in 10.0 mi SSE 5.8 mph - N/A   Overcast
3:53 PM 23.9 °F 16.8 °F 5.2 °F 45% 30.15 in 10.0 mi SSW 5.8 mph - N/A   Overcast
4:13 PM 23.4 °F 14.3 °F 4.8 °F 45% 30.14 in 10.0 mi SSW 8.1 mph - N/A   Overcast
4:34 PM 22.8 °F 12.2 °F 5.0 °F 47% 30.13 in 10.0 mi SSE 10.4 mph - N/A   Mostly Cloudy
4:53 PM 22.5 °F 12.4 °F 5.2 °F 48% 30.11 in 10.0 mi SSE 9.2 mph - N/A   Mostly Cloudy
5:13 PM 22.5 °F 15.1 °F 5.4 °F 48% 30.12 in 10.0 mi South 5.8 mph - N/A   Scattered Clouds
5:34 PM 21.9 °F 15.7 °F 5.7 °F 50% 30.11 in 10.0 mi SSE 4.6 mph - N/A   Mostly Cloudy
5:53 PM 21.2 °F 10.1 °F 5.7 °F 51% 30.09 in 10.0 mi SE 10.4 mph - N/A   Scattered Clouds
6:13 PM 20.8 °F 9.7 °F 5.9 °F 53% 30.09 in 10.0 mi SE 10.4 mph - N/A   Scattered Clouds
6:34 PM 20.5 °F 9.2 °F 5.9 °F 53% 30.09 in 10.0 mi SSE 10.4 mph - N/A   Scattered Clouds
6:53 PM 20.1 °F 7.5 °F 5.9 °F 54% 30.09 in 10.0 mi SE 12.7 mph - N/A   Scattered Clouds
7:13 PM 20.1 °F 8.1 °F 6.6 °F 56% 30.11 in 10.0 mi SSE 11.5 mph - N/A   Overcast
7:34 PM 19.9 °F 10.1 °F 6.3 °F 55% 30.11 in 10.0 mi SE 8.1 mph - N/A   Overcast
7:53 PM 19.4 °F 9.5 °F 4.6 °F 53% 30.12 in 10.0 mi SSE 8.1 mph 16.1 mph N/A   Overcast
8:13 PM 19.2 °F 8.4 °F 5.5 °F 55% 30.12 in 10.0 mi SSE 9.2 mph 17.3 mph N/A   Overcast
8:34 PM 19.0 °F 7.5 °F 6.6 °F 59% 30.13 in 10.0 mi SSE 10.4 mph - N/A   Overcast
8:53 PM 19.0 °F 8.2 °F 6.8 °F 59% 30.12 in 10.0 mi SSE 9.2 mph - N/A   Overcast
9:13 PM 18.9 °F 7.2 °F 7.2 °F 60% 30.12 in 10.0 mi SE 10.4 mph - N/A   Overcast
9:34 PM 19.0 °F 9.0 °F 7.3 °F 60% 30.11 in 10.0 mi SE 8.1 mph - N/A   Overcast
9:53 PM 19.2 °F 7.7 °F 7.3 °F 60% 30.10 in 10.0 mi SSE 10.4 mph 17.3 mph N/A   Overcast
10:13 PM 19.4 °F 8.6 °F 7.5 °F 60% 30.09 in 10.0 mi ESE 9.2 mph - N/A   Overcast
10:33 PM 19.4 °F 7.9 °F 7.7 °F 60% 30.09 in 10.0 mi SE 10.4 mph - N/A   Overcast
10:53 PM 19.4 °F 8.6 °F 7.7 °F 60% 30.08 in 10.0 mi ESE 9.2 mph 16.1 mph N/A   Overcast
11:13 PM 19.9 °F 10.1 °F 8.1 °F 60% 30.08 in 10.0 mi SE 8.1 mph - N/A   Overcast
11:33 PM 20.1 °F 10.3 °F 7.9 °F 59% 30.07 in 10.0 mi SE 8.1 mph - N/A   Overcast
11:53 PM 20.1 °F 8.8 °F 8.1 °F 60% 30.06 in 10.0 mi SE 10.4 mph - N/A   Overcast